Regional Weather Roundup
Issued by NWS Spokane, WA

Home | Current Version | Previous Version | Text Only | Print | Product List | Glossary On
Versions: 1 2 3 4 5 6 7 8 9 10 11 12 13 14 15 16 17 18 19 20 21 22 23 24 25 26 27 28 29 30 31 32 33 34 35 36 37 38 39 40 41 42 43 44 45 46 47 48 49 50
000
NZUS01 KOTX 302105
RWROTX
EASTERN WASHINGTON/NORTHERN IDAHO ROUNDUP
NATIONAL WEATHER SERVICE, SPOKANE WA
200 PM PDT SAT MAY 30 2015

Note: "fair" indicated few or no clouds below 12,000 feet with no
significant weather and/or obstructions to visibility.

...NORTHEAST WASHINGTON AND NORTHERN IDAHO PANHANDLE...

CITY           SKY/WX    TMP DP  RH WIND       PRES   REMARKS
SPOKANE INTL   PTSUNNY   79  50  36 SW15G22   29.88F
SPOKANE DOWNTO PTSUNNY   81  54  39 S9G16     29.87F
COEUR D ALENE  MOSUNNY   73  54  49 N7        29.88F
DEER PARK      SUNNY     75  58  55 NE10      29.89F
SANDPOINT      MOSUNNY   70  54  56 NE8       29.93F
BONNERS FERRY  MOCLDY    64  57  77 N8        29.96F

...SOUTHEAST WASHINGTON AND SOUTHERN IDAHO PANHANDLE...

CITY           SKY/WX    TMP DP  RH WIND       PRES   REMARKS
WALLA WALLA    PTSUNNY   84  53  34 VRB6      29.85F
PULLMAN/MOSCOW PTSUNNY   77  54  44 W9        29.92F
LEWISTON       PTSUNNY   84  50  30 VRB3      29.84R
LOWELL           N/A     77  51  40 S8        29.89F

...COLUMBIA BASIN...

CITY           SKY/WX    TMP DP  RH WIND       PRES   REMARKS
EPHRATA        MOSUNNY   85  53  33 S10       29.81F
MOSES LAKE     MOSUNNY   84  53  34 SW12      29.83F
TRI CITIES     CLOUDY    89  38  16 SW15      29.80F
HERMISTON      CLOUDY    86  43  22 W14       29.82S
PENDLETON      CLOUDY    84  50  30 NW9       29.85F

...EAST SLOPES CASCADES...

CITY           SKY/WX    TMP DP  RH WIND       PRES   REMARKS
THE DALLES     MOSUNNY   85  49  28 NW18G29   29.82F
YAKIMA         MOSUNNY   87  44  22 VRB3      29.81F
ELLENSBURG     SUNNY     86  41  20 W7        29.84F
WENATCHEE      SUNNY     85  50  29 E5        29.80F
OMAK           SUNNY     83  53  35 S12G17    29.81F

...SOUTHERN BRITISH COLUMBIA...

CITY           SKY/WX    TMP DP  RH WIND       PRES   REMARKS
CRANBROOK      LGT RAIN  59  55  88 N9        30.01S

...WESTERN MONTANA...

CITY           SKY/WX    TMP DP  RH WIND       PRES   REMARKS
MISSOULA       LGT RAIN  64  51  62 SE9       30.01R

...NEIGHBORING CITIES...

CITY           SKY/WX    TMP DP  RH WIND       PRES   REMARKS
SEATTLE        SUNNY     66  46  48 S8        29.97F



USA.gov is the U.S. government's official web portal to all federal, state and local government web resources and services.